TIANTONG-1 3

Last updated on Wed May 14 2025 00:02:45 GMT+0000 (Coordinated Universal Time)

1 47321U 21003A 25133.53888300 -.00000140 00000+0 00000+0 0 9996 2 47321 2.2642 320.2664 0002260 64.2859 122.4803 1.00273973 15965
UTC large
Height (km)
Speed (km/s)
/
Latitude / Longitude
Inclination (degrees)
Orbital Period (minutes)
Azimuth
Elevation
Range (km)
Doppler Factor

Next 0 passes for location: London (51.5072 / 0.1276)

Sorry there are no passes over London.